When you browse on this site, cookies collect data to enhance your experience and personalize the content and advertising you see.
Visit our Privacy Policy to learn more. By continuing to use the site, you agree to this use of cookies and data.
  • en Suisse
  • Liste des pays
  • À 7 jours
  • Température de l'eau
  • Carte satellitaire
  • Carte météo
  • Widgets météo
  • user-avatar
    Se connecter

    Météo par heure à Zagorze

    Ce jour, 23 Juillet, Mardi

    Heure Température Précipitation Vent Pression Humidité
    00:00 +20°C° 0.7 mm 1 m/s 750 mmHg 83%
    01:00 +19°C° 0 mm 1 m/s 750 mmHg 91%
    02:00 +18°C° 0.3 mm 2 m/s 750 mmHg 91%
    03:00 +18°C° 0.3 mm 2 m/s 750 mmHg 92%
    04:00 +17°C° 0.3 mm 2 m/s 749 mmHg 92%
    05:00 +17°C° 0.1 mm 3 m/s 749 mmHg 92%
    06:00 +17°C° 0.1 mm 3 m/s 750 mmHg 92%
    07:00 +17°C° 0.1 mm 3 m/s 750 mmHg 92%
    08:00 +17°C° 0 mm 3 m/s 750 mmHg 90%
    09:00 +18°C° 0 mm 3 m/s 750 mmHg 88%
    10:00 +19°C° 0 mm 3 m/s 750 mmHg 86%
    11:00 +19°C° 0 mm 3 m/s 750 mmHg 86%
    12:00 +19°C° 0 mm 2 m/s 750 mmHg 86%
    13:00 +19°C° 0 mm 2 m/s 749 mmHg 85%
    14:00 +20°C° 0 mm 2 m/s 749 mmHg 83%
    15:00 +21°C° 0 mm 2 m/s 749 mmHg 80%
    16:00 +23°C° 0 mm 2 m/s 750 mmHg 78%
    17:00 +22°C° 0 mm 1 m/s 749 mmHg 80%
    18:00 +22°C° 0 mm 1 m/s 749 mmHg 82%
    19:00 +20°C° 0 mm 0 m/s 749 mmHg 84%
    20:00 +19°C° 0 mm 0 m/s 749 mmHg 86%
    21:00 +19°C° 0 mm 0 m/s 749 mmHg 87%
    22:00 +21°C° 0 mm 1 m/s 749 mmHg 88%
    23:00 +20°C° 0 mm 1 m/s 749 mmHg 89%

    Demain, 24 Juillet, Mercredi

    Heure Température Précipitation Vent Pression Humidité
    00:00 +20°C° 0 mm 1 m/s 749 mmHg 90%
    01:00 +19°C° 0 mm 2 m/s 749 mmHg 91%
    02:00 +19°C° 0 mm 2 m/s 748 mmHg 92%
    03:00 +18°C° 0 mm 2 m/s 748 mmHg 93%
    04:00 +18°C° 0 mm 2 m/s 748 mmHg 95%
    05:00 +19°C° 0 mm 2 m/s 748 mmHg 90%
    06:00 +20°C° 0 mm 3 m/s 748 mmHg 85%
    07:00 +21°C° 0 mm 3 m/s 748 mmHg 80%
    08:00 +22°C° 0 mm 3 m/s 748 mmHg 75%
    09:00 +24°C° 0 mm 3 m/s 748 mmHg 71%
    10:00 +25°C° 0 mm 3 m/s 748 mmHg 66%
    11:00 +26°C° 0 mm 3 m/s 748 mmHg 63%
    12:00 +27°C° 0 mm 3 m/s 748 mmHg 60%
    13:00 +28°C° 0 mm 3 m/s 748 mmHg 57%
    14:00 +28°C° 0 mm 3 m/s 748 mmHg 57%
    15:00 +28°C° 0 mm 3 m/s 748 mmHg 56%
    16:00 +28°C° 0 mm 3 m/s 748 mmHg 55%
    17:00 +27°C° 0 mm 3 m/s 748 mmHg 60%
    18:00 +26°C° 0 mm 2 m/s 748 mmHg 66%
    19:00 +25°C° 0 mm 1 m/s 748 mmHg 71%
    20:00 +24°C° 0 mm 1 m/s 748 mmHg 74%
    21:00 +23°C° 0 mm 1 m/s 748 mmHg 78%
    22:00 +22°C° 0 mm 1 m/s 748 mmHg 81%
    23:00 +21°C° 0 mm 1 m/s 748 mmHg 83%

    Après-demain, 25 Juillet, Jeudi

    Heure Température Précipitation Vent Pression Humidité
    00:00 +21°C° 0 mm 1 m/s 748 mmHg 84%
    01:00 +19°C° 0 mm 0 m/s 748 mmHg 86%
    02:00 +21°C° 0 mm 1 m/s 748 mmHg 87%
    03:00 +20°C° 0 mm 1 m/s 748 mmHg 88%
    04:00 +20°C° 0 mm 1 m/s 749 mmHg 89%
    05:00 +21°C° 0 mm 1 m/s 749 mmHg 84%
    06:00 +23°C° 0 mm 1 m/s 748 mmHg 78%
    07:00 +24°C° 0 mm 2 m/s 748 mmHg 73%
    08:00 +26°C° 0.1 mm 2 m/s 749 mmHg 68%
    09:00 +27°C° 0.1 mm 2 m/s 749 mmHg 63%
    10:00 +28°C° 0.1 mm 3 m/s 749 mmHg 57%
    11:00 +29°C° 0 mm 3 m/s 748 mmHg 53%
    12:00 +30°C° 0 mm 3 m/s 748 mmHg 48%
    13:00 +30°C° 0 mm 3 m/s 748 mmHg 44%
    14:00 +30°C° 0 mm 4 m/s 748 mmHg 44%
    15:00 +30°C° 0 mm 4 m/s 747 mmHg 45%
    16:00 +30°C° 0 mm 4 m/s 747 mmHg 45%
    17:00 +29°C° 0 mm 4 m/s 747 mmHg 53%
    18:00 +27°C° 0 mm 3 m/s 747 mmHg 60%
    19:00 +26°C° 0 mm 3 m/s 747 mmHg 67%
    20:00 +24°C° 0 mm 3 m/s 747 mmHg 68%
    21:00 +22°C° 0 mm 3 m/s 747 mmHg 68%
    22:00 +21°C° 0 mm 3 m/s 748 mmHg 69%
    23:00 +20°C° 0 mm 3 m/s 748 mmHg 73%

    26 Juillet, Vendredi

    Heure Température Précipitation Vent Pression Humidité
    00:00 +19°C° 0 mm 2 m/s 747 mmHg 77%
    01:00 +18°C° 0 mm 2 m/s 747 mmHg 81%
    02:00 +18°C° 0 mm 2 m/s 747 mmHg 83%
    03:00 +17°C° 0 mm 2 m/s 747 mmHg 85%
    04:00 +17°C° 0 mm 2 m/s 747 mmHg 87%
    05:00 +18°C° 0 mm 2 m/s 747 mmHg 82%
    06:00 +19°C° 0 mm 3 m/s 747 mmHg 78%
    07:00 +20°C° 0 mm 3 m/s 746 mmHg 74%
    08:00 +21°C° 0 mm 3 m/s 746 mmHg 67%
    09:00 +24°C° 0 mm 3 m/s 746 mmHg 61%
    10:00 +25°C° 0 mm 3 m/s 746 mmHg 54%
    11:00 +26°C° 0 mm 3 m/s 746 mmHg 51%
    12:00 +27°C° 0 mm 3 m/s 746 mmHg 49%
    13:00 +27°C° 0 mm 3 m/s 745 mmHg 46%
    14:00 +27°C° 0 mm 4 m/s 745 mmHg 48%
    15:00 +27°C° 0 mm 4 m/s 745 mmHg 49%
    16:00 +26°C° 0 mm 5 m/s 744 mmHg 50%
    17:00 +26°C° 0 mm 4 m/s 744 mmHg 54%
    18:00 +25°C° 0 mm 3 m/s 744 mmHg 58%
    19:00 +24°C° 0 mm 3 m/s 745 mmHg 61%
    20:00 +22°C° 0 mm 3 m/s 745 mmHg 65%
    21:00 +20°C° 0 mm 3 m/s 745 mmHg 70%
    22:00 +19°C° 0 mm 3 m/s 745 mmHg 74%
    23:00 +19°C° 0 mm 3 m/s 744 mmHg 77%

    27 Juillet, Samedi

    Heure Température Précipitation Vent Pression Humidité
    00:00 +18°C° 0 mm 3 m/s 744 mmHg 81%
    01:00 +17°C° 0 mm 2 m/s 744 mmHg 85%
    02:00 +17°C° 0 mm 2 m/s 744 mmHg 87%
    03:00 +17°C° 0 mm 2 m/s 744 mmHg 90%
    04:00 +16°C° 0 mm 2 m/s 744 mmHg 93%
    05:00 +17°C° 0 mm 3 m/s 744 mmHg 88%
    06:00 +19°C° 0 mm 3 m/s 744 mmHg 83%
    07:00 +20°C° 0 mm 3 m/s 744 mmHg 77%
    08:00 +21°C° 0 mm 4 m/s 744 mmHg 71%
    09:00 +23°C° 0 mm 4 m/s 744 mmHg 65%
    10:00 +25°C° 0 mm 4 m/s 744 mmHg 60%
    11:00 +26°C° 0 mm 4 m/s 743 mmHg 55%
    12:00 +27°C° 0 mm 4 m/s 743 mmHg 51%
    13:00 +28°C° 0 mm 4 m/s 743 mmHg 46%
    14:00 +28°C° 0 mm 4 m/s 742 mmHg 47%
    15:00 +28°C° 0 mm 5 m/s 742 mmHg 48%
    16:00 +28°C° 0 mm 5 m/s 742 mmHg 49%
    17:00 +27°C° 0 mm 4 m/s 742 mmHg 54%
    18:00 +26°C° 0 mm 4 m/s 742 mmHg 60%
    19:00 +25°C° 0 mm 3 m/s 742 mmHg 65%
    20:00 +22°C° 0 mm 3 m/s 742 mmHg 70%
    21:00 +21°C° 0 mm 3 m/s 742 mmHg 75%
    22:00 +20°C° 0 mm 3 m/s 742 mmHg 80%
    23:00 +20°C° 0 mm 3 m/s 742 mmHg 84%

    28 Juillet, Dimanche

    Heure Température Précipitation Vent Pression Humidité
    00:00 +19°C° 0 mm 3 m/s 742 mmHg 88%
    01:00 +19°C° 0 mm 3 m/s 742 mmHg 92%
    02:00 +18°C° 0 mm 3 m/s 742 mmHg 93%
    03:00 +18°C° 0 mm 3 m/s 742 mmHg 94%
    04:00 +18°C° 0 mm 3 m/s 741 mmHg 95%
    05:00 +19°C° 0 mm 4 m/s 742 mmHg 89%
    06:00 +21°C° 0 mm 4 m/s 742 mmHg 83%
    07:00 +22°C° 0 mm 5 m/s 742 mmHg 77%
    08:00 +23°C° 0 mm 5 m/s 742 mmHg 71%
    09:00 +26°C° 0 mm 6 m/s 742 mmHg 64%
    10:00 +27°C° 0 mm 6 m/s 742 mmHg 57%
    11:00 +28°C° 0 mm 6 m/s 742 mmHg 55%
    12:00 +28°C° 0 mm 6 m/s 742 mmHg 53%
    13:00 +29°C° 0 mm 6 m/s 742 mmHg 50%
    14:00 +29°C° 0 mm 6 m/s 742 mmHg 50%
    15:00 +29°C° 0 mm 5 m/s 742 mmHg 49%
    16:00 +29°C° 0 mm 5 m/s 742 mmHg 49%
    17:00 +28°C° 0 mm 4 m/s 742 mmHg 53%
    18:00 +27°C° 0 mm 4 m/s 742 mmHg 57%
    19:00 +26°C° 0 mm 3 m/s 742 mmHg 61%
    20:00 +25°C° 0 mm 3 m/s 742 mmHg 65%
    21:00 +24°C° 0 mm 3 m/s 743 mmHg 68%
    22:00 +22°C° 0 mm 3 m/s 743 mmHg 71%
    23:00 +22°C° 0 mm 3 m/s 743 mmHg 76%
    Voir plus